Tracking 25701 objects as of 3-Jul-2022
HD Live streaming from Space Station
objects crossing your sky now

FENGYUN 1C DEB

Track FENGYUN 1C DEB now!
10-day predictions


NORAD ID: 32089
Int'l Code: 1999-025CQF
Perigee: 780.9 km
Apogee: 955.6 km
Inclination: 98.7 °
Period: 102.2 minutes
Semi major axis: 7239 km
RCS: 0.0109 m2 (small)
Launch date: May 10, 1999
Source: People's Republic of China (PRC)
Launch site: Taiyaun Space Center, China (TSC)

Note: This is SATELLITE DEBRIS
aabbcc
Your satellite tracking list
Your tracking list is empty




NASA's NSSDC Master Catalog

Two Line Element Set (TLE):
1 32089U 99025CQF 22181.31118644  .00000461  00000-0  26891-3 0  9999
2 32089  98.7248 211.6066 0120653 111.6756 249.7313 14.09480815454202
Source of the keplerian elements: AFSPC